This is the latest recevied weather packets stored in our database for station/object K7TSD. If no packets are shown the sender has not sent any weather packets the latest 10 day(s).
| Time | Temp. | Humidity | Pressure | Rain* | Wind** | Luminosity | Snow |
|---|---|---|---|---|---|---|---|
| 1778084570 | 4.44° C | 49% | 1014.6 hPa | 0 mm | - | 700 W/m² | - |
| 1778084261 | 4.44° C | 49% | 1014.7 hPa | 0 mm | - | 695 W/m² | - |
| 1778083958 | 4.44° C | 49% | 1015 hPa | 0 mm | - | 666 W/m² | - |
| 1778083656 | 4.44° C | 48% | 1014.9 hPa | 0 mm | - | 642 W/m² | - |
| 1778083352 | 4.44° C | 48% | 1014.9 hPa | 0 mm | - | 615 W/m² | - |
| 1778083051 | 3.89° C | 49% | 1015.2 hPa | 0 mm | - | 569 W/m² | - |
| 1778082748 | 3.89° C | 47% | 1015.3 hPa | 0 mm | - | 446 W/m² | - |
| 1778081615 | 3.89° C | 47% | 1015.3 hPa | 0 mm | - | 446 W/m² | - |
| 1778081312 | 3.33° C | 48% | 1015.1 hPa | 0 mm | - | 438 W/m² | - |
| 1778081009 | 3.89° C | 47% | 1015.4 hPa | 0 mm | - | 429 W/m² | - |
| 1778080708 | 3.33° C | 48% | 1015.2 hPa | 0 mm | - | 397 W/m² | - |
| 1778080404 | 3.89° C | 47% | 1015.2 hPa | 0 mm | - | 380 W/m² | - |
| 1778080101 | 3.33° C | 49% | 1015.6 hPa | 0 mm | - | 368 W/m² | - |
| 1778079798 | 3.33° C | 49% | 1015.7 hPa | 0 mm | - | 356 W/m² | - |
| 1778079495 | 3.33° C | 48% | 1015.2 hPa | 0 mm | - | 302 W/m² | - |
| 1778079191 | 3.89° C | 48% | 1015.4 hPa | 0 mm | - | 288 W/m² | - |
| 1778078889 | 3.33° C | 48% | 1015.4 hPa | 0 mm | - | 265 W/m² | - |
| 1778078585 | 2.78° C | 49% | 1015.6 hPa | 0 mm | - | 291 W/m² | - |
| 1778078283 | 2.78° C | 48% | 1015.7 hPa | 0 mm | - | 263 W/m² | - |
| 1778077980 | 2.78° C | 48% | 1015.9 hPa | 0 mm | - | 261 W/m² | - |
| 1778077678 | 2.78° C | 49% | 1015.4 hPa | 0 mm | - | 266 W/m² | - |
| 1778077376 | 2.78° C | 50% | 1015.9 hPa | 0 mm | - | 243 W/m² | - |
| 1778077074 | 2.78° C | 50% | 1015.8 hPa | 0 mm | - | 208 W/m² | - |
| 1778076772 | 2.78° C | 49% | 1015.7 hPa | 0 mm | - | 203 W/m² | - |
| 1778076469 | 2.22° C | 51% | 1015.7 hPa | 0 mm | - | 175 W/m² | - |
* Rain latest hour (hover to see other rain measurements)
** Current wind speed in m/s (hover to see current wind gust speed)